Location: Rimouski
(48.4330°N, 68.5170°W)
Time: 16:50:17
(UTC-04:00)

Daily predictions for brighter satellites

Satellite Brightness Start Highest point End
(mag) Time Altitude Azimuth Time Altitude Azimuth Time Altitude Azimuth
Cosmos 468 Rocket 4.2 21:12:59 10° NNW 21:18:04 59° ENE 21:23:08 10° SE
Cosmos 2221 2.9 21:14:05 10° NNW 21:18:28 68° W 21:22:49 10° S
Meteor 1-21 Rocket 4.4 21:13:05 10° S 21:18:38 59° E 21:24:07 10° NNE
Cosmos 1850 Rocket 4.0 21:14:07 10° SSW 21:19:17 76° ESE 21:24:31 10° NNE
Abrixas rocket 2.1 21:16:49 10° W 21:20:04 75° SSW 21:23:19 10° ESE
Cosmos 2016 Rocket 4.2 21:14:25 10° N 21:20:40 62° ENE 21:26:47 10° SSE
Tiangong 1 2.1 21:18:45 10° SW 21:21:04 23° S 21:23:23 10° ESE
MetOp-B 4.2 21:16:30 10° SSE 21:21:52 85° ENE 21:27:16 10° NNW
Cosmos 2263 Rocket 3.8 21:23:48 10° SE 21:26:54 15° E 21:30:01 10° ENE
ERS-1 Rocket 3.4 21:23:50 10° S 21:28:50 66° WSW 21:33:52 10° NNW
Okean 3 Rocket 3.8 21:24:32 10° SSW 21:29:02 78° W 21:33:32 10° N
SL-14 R/B 4.4 21:27:17 10° SSE 21:30:40 27° E 21:34:03 10° NNE
Cosmos 1300 3.3 21:27:52 10° N 21:31:32 41° ENE 21:35:11 10° SSE
ATLAS 5 CENTAUR R/B 1.8 21:27:44 10° SW 21:32:27 79° SE 21:37:40 10° NE
Cosmos 1626 4.3 21:31:38 10° ESE 21:32:48 11° E 21:33:59 10° ENE
YAOGAN 6 4.4 21:30:42 10° SSW 21:33:56 30° W 21:37:14 10° NNW
Cosmos 1726 2.3 21:30:42 10° N 21:34:21 57° ENE 21:37:57 10° SSE
H-2A R/B 2.4 21:30:08 10° SSE 21:35:23 62° ENE 21:40:46 10° N
Cosmos 1340 Rocket 4.4 21:37:06 10° SW 21:40:52 38° WNW 21:44:43 10° N
Cosmos 1741 Rocket 4.4 21:38:55 10° SSW 21:44:13 73° WNW 21:49:33 10° NNE
Cosmos 1766 Rocket 3.5 21:40:12 10° S 21:44:31 78° E 21:48:53 10° NNE
Terra 2.6 21:40:45 10° SE 21:45:07 39° ENE 21:49:32 10° N
Cosmos 1328 Rocket 3.6 21:43:21 10° N 21:47:42 64° ENE 21:51:49 11° SSE
Cosmos 1603 3.8 21:42:46 10° NNW 21:48:27 81° WSW 21:53:56 11° SSE
YAOGAN 11 4.4 21:45:10 10° S 21:49:39 71° WSW 21:54:13 10° NNW
USA 245 3.6 21:47:09 10° S 21:50:33 66° W 21:54:54 10° NNW
Cosmos 332 Rocket 3.9 21:46:51 10° NNW 21:51:47 88° WSW 21:56:25 12° SSE
Cosmos 1515 Rocket 3.9 21:48:06 10° N 21:52:22 52° ENE 21:56:08 13° SSE
SL-08 RB Rocket 3.9 21:50:18 10° S 21:54:51 73° WSW 21:59:30 10° NNW
Cosmos 2228 Rocket 3.2 21:50:39 10° N 21:55:16 71° E 21:59:30 12° SSE
Cosmos 1151 Rocket 3.6 21:53:02 10° N 21:57:18 46° ENE 22:00:51 14° SSE
CZ-3B DEB 4.5 21:47:22 10° W 21:58:01 67° N 22:11:10 10° ENE
Cosmos 2227 Rocket 4.4 21:54:57 10° WSW 21:59:51 29° NW 22:04:47 10° NNE
H-2A R/B 2.8 21:57:03 13° SE 22:00:34 40° ENE 22:04:32 10° N
Cosmos 1743 Rocket 3.7 21:56:35 10° S 22:00:48 53° E 22:05:02 10° NNE
Cosmos 1674 4.0 21:59:01 10° SSW 22:02:35 39° WNW 22:06:09 10° N
Cosmos 1943 3.3 21:59:02 10° NNW 22:04:43 74° ENE 22:09:32 15° SE
SL-16 R/B 4.1 22:00:28 10° NW 22:04:53 24° WSW 22:09:17 10° SSW
Cosmos 1455 3.7 22:01:52 10° NNE 22:05:08 25° ENE 22:07:41 14° ESE
Cosmos 2084 3.6 22:02:35 10° SW 22:06:31 67° NW 22:10:19 10° NE
H-2A ROCKET BODY 4.3 22:03:04 10° S 22:06:53 15° SE 22:13:59 10° ESE
ARGOS 3.9 22:02:26 10° S 22:07:42 51° W 22:12:59 10° NNW
DMSP B5D2-2 4.3 22:02:35 10° NNE 22:07:44 54° E 22:12:46 10° S
IGS 5A 3.8 22:04:43 15° SSE 22:08:02 55° ENE 22:12:07 10° N
ERBS 2.5 22:08:19 10° WNW 22:11:39 58° SW 22:13:54 19° SE
Cosmos 1356 4.2 22:11:02 17° SSE 22:13:15 36° E 22:16:30 10° NNE
Nimbus 7 Rocket 4.4 22:07:59 10° NNE 22:14:04 84° ESE 22:20:04 10° SSW
Cosmos 1814 Rocket 4.3 22:11:34 10° NNW 22:16:53 66° WSW 22:21:25 14° S
SME Rocket 4.4 22:15:18 13° ESE 22:18:16 32° ENE 22:22:37 10° N
Cosmos 2123 Rocket 4.0 22:12:21 10° S 22:18:33 87° W 22:24:48 10° N
Cosmos 1486 Rocket 4.1 22:21:05 10° S 22:26:16 63° ESE 22:31:32 10° NNE
Cosmos 841 Rocket 3.5 22:23:17 10° NNW 22:28:35 82° WSW 22:32:30 18° SSE
Cosmos 2285 Rocket 4.2 22:22:29 10° NNW 22:28:48 65° ENE 22:33:43 17° SE
SPOT 1/Viking Rocket 4.4 22:25:36 10° S 22:30:31 45° W 22:35:29 10° NNW
Cosmos 1763 Rocket 3.7 22:26:03 10° NNW 22:31:08 62° WSW 22:35:00 17° S
Cosmos 1703 3.5 22:31:38 20° SSE 22:34:08 52° E 22:38:02 10° NNE
CZ-2C R/B 4.4 22:31:33 10° NE 22:34:35 15° E 22:36:50 12° ESE
Cosmos 220 Rocket 4.1 22:31:08 10° SSW 22:35:34 85° WNW 22:39:58 10° NNE
Meteor 1-11 4.3 22:32:13 12° S 22:37:43 81° E 22:43:34 10° NNE
Cosmos 371 Rocket 4.3 22:37:36 10° NW 22:42:05 39° WSW 22:45:44 14° SSW
Lacrosse 5 3.1 22:39:29 10° WNW 22:43:50 29° SW 22:46:42 17° S
PSLV R/B 2.9 22:43:44 32° SSE 22:44:54 83° ENE 22:47:47 10° NNW
Cosmos 2058 2.9 22:41:53 18° S 22:45:01 85° E 22:49:16 10° N
deb Chang Zheng 4 3.6 22:42:23 10° NNE 22:46:44 64° ESE 22:49:38 20° S
Sich 1 4.3 22:45:24 20° SE 22:47:12 26° E 22:50:46 10° NNE
DELTA 2 DEB (DPAF) 4.3 22:44:56 22° SSE 22:47:42 63° ENE 22:52:08 10° N
ALOS 2 4.3 22:50:01 13° ESE 22:52:50 23° ENE 22:56:17 10° NNE
Cosmos 1707 Rocket 4.0 22:49:53 10° N 22:54:16 52° ENE 22:56:43 24° SE
Tiangong 1 2.7 22:53:59 10° WSW 22:55:09 17° SW 22:55:09 17° SW
Abrixas rocket 3.4 22:53:48 10° W 22:56:31 25° SSW 22:56:48 24° SSW
USA 234 3.3 22:50:07 10° NE 22:56:43 89° NW 23:03:16 10° WSW
CZ-4C R/B 3.4 22:56:27 19° SE 22:57:49 21° ESE 23:02:04 10° ENE
SL-24 R/B 4.4 22:59:26 26° SSE 23:01:44 88° W 23:05:57 10° NNW
Cosmos 1464 Rocket 4.0 22:56:44 10° N 23:02:54 73° E 23:06:58 23° SSE
SOZ 4.5 22:58:50 10° WSW 23:03:02 79° SSE 23:05:13 10° ENE
Cosmos 2151 3.7 23:02:31 13° SSW 23:06:12 51° WNW 23:10:26 10° N
Cosmos 1626 2.5 23:05:11 20° SSW 23:07:37 61° W 23:11:21 10° N
Cosmos 2263 Rocket 2.1 23:04:26 10° SSW 23:10:00 89° WNW 23:15:39 10° NNE
COSMOS 2406 3.8 23:04:36 10° NNW 23:10:08 50° NE 23:14:11 18° SE
Cosmos 1503 Rocket 3.9 23:08:10 18° SSW 23:12:06 80° ESE 23:17:18 10° NNE
Cosmos 1666 Rocket 3.9 23:11:30 28° SSE 23:13:33 50° E 23:17:52 10° NNE
ARGOS Delta rocket 4.4 23:09:15 10° NNE 23:14:26 49° E 23:17:03 26° SSE
H-2A R/B 4.0 23:11:10 10° SW 23:15:14 22° W 23:19:23 10° NW
ATLAS 5 CENTAUR R/B 4.2 23:13:31 10° W 23:17:44 28° NNW 23:22:22 10° NNE
CZ-4 R/B 4.0 23:14:41 10° N 23:19:34 72° WNW 23:23:08 18° SSW
Terra 3.3 23:19:38 14° SSW 23:22:57 29° W 23:27:06 10° NW
Cosmos 967 Rocket 4.5 23:16:58 10° NW 23:23:21 80° WSW 23:27:21 25° SSE
Cosmos 1805 Rocket 3.5 23:22:29 27° S 23:24:50 86° W 23:29:12 10° N
Cosmos 292 Rocket 4.3 23:21:16 10° NNW 23:25:55 49° ENE 23:28:38 23° SE
CZ-4B R/B 3.7 23:23:14 10° NNE 23:28:33 77° WNW 23:32:19 19° SSW
Cosmos 1633 Rocket 3.1 23:28:52 32° SSE 23:30:42 62° E 23:35:00 10° NNE
Cosmos 540 Rocket 4.0 23:28:30 10° NNW 23:33:27 48° WSW 23:36:05 25° SSW
Cosmos 1933 4.0 23:30:25 10° N 23:34:22 44° ENE 23:36:00 29° SE
Cosmos 968 Rocket 3.9 23:33:28 29° SSE 23:35:44 46° ESE 23:40:46 10° NNE
H-2A R/B 3.8 23:34:10 14° SW 23:36:43 23° W 23:40:09 10° NW
Tsikada Rocket 4.2 23:33:44 26° SSE 23:37:23 60° E 23:43:36 10° NNE
Cosmos 1455 3.8 23:37:28 10° NNW 23:40:49 28° W 23:42:40 19° SW
CZ-2C R/B 3.3 23:37:55 27° SSE 23:41:15 79° ENE 23:46:55 10° NNW
Cosmos 1869 3.7 23:38:43 10° NNW 23:42:34 53° W 23:44:06 32° SSW
Cosmos 1844 Rocket 3.2 23:41:56 28° SSE 23:44:11 41° ESE 23:49:25 10° NE
Cosmos 2084 Rocket 3.0 23:45:33 10° NW 23:49:22 80° SW 23:50:36 41° SSE
Cosmos 1315 Rocket 4.0 23:50:40 25° ESE 23:51:34 28° E 23:54:57 10° NNE
Cosmos 2242 Rocket 3.6 23:47:52 10° N 23:52:30 85° W 23:54:26 35° S
